User: anonymous   Login
Location: Unspecified
(0.0000°N, 0.0000°E)
Time: 21:07:15
(UTC+00:00)
Language:

STARLINK-31455 - Orbit

View from above orbital plane
View from above orbital plane
View from above satellite
View from above satellite

Ground track
Ground track

The orbit is defined by the following mean orbital elements,

1 59309U          26145.46940209 +.00000000 +00000-0 +10539-4 0 00003
2 59309  43.0026 153.9131 0001073 275.2014  84.8715 15.27577471    07
Epoch (UTC): 25 May 2026 11:15:56
Eccentricity: 0.0001073
inclination: 43.0026°
perigee height: 482 km
apogee height: 484 km
right ascension of ascending node: 153.9131°
argument of perigee: 275.2014°
revolutions per day: 15.27577471
mean anomaly at epoch: 84.8715°

The dashed part of the orbit path shows where the satellite is in the earth's shadow,  

DLR